TimeEDT,TemperatureF,Dew PointF,Humidity,Sea Level PressureIn,VisibilityMPH,Wind Direction,Wind SpeedMPH,Gust SpeedMPH,PrecipitationIn,Events,Conditions,WindDirDegrees,DateUTC
12:14 AM,28.6,25.7,89,30.10,10.0,Calm,Calm,-,N/A,,Clear,0,2012-10-08 04:14:00
12:35 AM,28.0,26.1,92,30.10,10.0,Calm,Calm,-,N/A,,Clear,0,2012-10-08 04:35:00
12:55 AM,28.0,25.7,91,30.09,10.0,Calm,Calm,-,N/A,,Clear,0,2012-10-08 04:55:00
1:14 AM,27.3,25.2,92,30.09,10.0,Calm,Calm,-,N/A,,Clear,0,2012-10-08 05:14:00
1:35 AM,27.0,25.3,94,30.08,10.0,Calm,Calm,-,N/A,,Clear,0,2012-10-08 05:35:00
1:55 AM,27.3,25.7,94,30.09,10.0,Calm,Calm,-,N/A,,Clear,0,2012-10-08 05:55:00
2:14 AM,27.1,25.3,93,30.09,10.0,Calm,Calm,-,N/A,,Clear,0,2012-10-08 06:14:00
2:35 AM,26.6,25.0,94,30.09,10.0,Calm,Calm,-,N/A,,Clear,0,2012-10-08 06:35:00
2:55 AM,26.8,25.0,93,30.09,10.0,Calm,Calm,-,N/A,,Clear,0,2012-10-08 06:55:00
3:14 AM,26.4,24.1,91,30.08,10.0,Calm,Calm,-,N/A,,Clear,0,2012-10-08 07:14:00
3:35 AM,25.7,23.7,92,30.08,10.0,Calm,Calm,-,N/A,,Clear,0,2012-10-08 07:35:00
3:55 AM,25.7,23.9,93,30.08,10.0,Calm,Calm,-,N/A,,Clear,0,2012-10-08 07:55:00
4:14 AM,26.6,25.0,94,30.08,10.0,Calm,Calm,-,N/A,,Clear,0,2012-10-08 08:14:00
4:35 AM,25.9,24.1,93,30.08,10.0,Calm,Calm,-,N/A,,Clear,0,2012-10-08 08:35:00
4:54 AM,26.1,24.1,92,30.08,10.0,Calm,Calm,-,N/A,,Clear,0,2012-10-08 08:54:00
5:14 AM,25.5,23.5,92,30.08,10.0,Calm,Calm,-,N/A,,Clear,0,2012-10-08 09:14:00
5:35 AM,25.2,23.2,92,30.08,10.0,Calm,Calm,-,N/A,,Clear,0,2012-10-08 09:35:00
5:54 AM,25.0,23.2,93,30.08,10.0,Calm,Calm,-,N/A,,Clear,0,2012-10-08 09:54:00
6:14 AM,25.2,23.0,91,30.08,10.0,Calm,Calm,-,N/A,,Clear,0,2012-10-08 10:14:00
6:35 AM,25.5,23.4,92,30.08,10.0,Calm,Calm,-,N/A,,Clear,0,2012-10-08 10:35:00
6:54 AM,24.8,22.8,92,30.08,10.0,Calm,Calm,-,N/A,,Clear,0,2012-10-08 10:54:00
7:15 AM,24.8,22.8,92,30.09,10.0,Calm,Calm,-,N/A,,Clear,0,2012-10-08 11:15:00
7:35 AM,23.9,22.1,93,30.09,7.0,Calm,Calm,-,N/A,,Clear,0,2012-10-08 11:35:00
7:54 AM,24.6,23.0,94,30.10,10.0,Calm,Calm,-,N/A,,Clear,0,2012-10-08 11:54:00
8:15 AM,24.8,23.0,93,30.10,10.0,Calm,Calm,-,N/A,,Clear,0,2012-10-08 12:15:00
8:35 AM,26.4,24.6,93,30.10,10.0,Calm,Calm,-,N/A,,Clear,0,2012-10-08 12:35:00
8:54 AM,30.2,28.9,95,30.11,10.0,Calm,Calm,-,N/A,,Clear,0,2012-10-08 12:54:00
9:15 AM,34.3,32.0,91,30.11,10.0,South,5.8,-,N/A,,Clear,170,2012-10-08 13:15:00
9:35 AM,36.9,31.6,81,30.11,10.0,South,6.9,-,N/A,,Clear,170,2012-10-08 13:35:00
9:54 AM,39.7,30.6,70,30.11,10.0,South,5.8,-,N/A,,Clear,190,2012-10-08 13:54:00
10:15 AM,42.4,30.7,63,30.11,10.0,South,6.9,-,N/A,,Clear,180,2012-10-08 14:15:00
10:35 AM,44.8,30.7,58,30.11,10.0,South,6.9,-,N/A,,Clear,180,2012-10-08 14:35:00
10:54 AM,46.6,30.0,53,30.10,10.0,South,8.1,-,N/A,,Clear,190,2012-10-08 14:54:00
11:15 AM,49.6,29.7,46,30.09,10.0,SSW,12.7,18.4,N/A,,Clear,200,2012-10-08 15:15:00
11:35 AM,50.9,29.5,44,30.09,10.0,SSW,9.2,18.4,N/A,,Clear,210,2012-10-08 15:35:00
11:54 AM,52.3,29.7,42,30.09,10.0,South,15.0,19.6,N/A,,Clear,190,2012-10-08 15:54:00
12:15 PM,53.6,29.3,39,30.08,10.0,South,19.6,24.2,N/A,,Scattered Clouds,190,2012-10-08 16:15:00
12:35 PM,53.4,28.6,38,30.08,10.0,SSW,15.0,24.2,N/A,,Mostly Cloudy,210,2012-10-08 16:35:00
12:54 PM,54.9,27.3,35,30.08,10.0,SSW,13.8,23.0,N/A,,Mostly Cloudy,210,2012-10-08 16:54:00
1:15 PM,52.9,27.9,38,30.08,10.0,SSW,17.3,24.2,N/A,,Overcast,200,2012-10-08 17:15:00
1:54 PM,53.6,27.5,37,30.06,10.0,WSW,12.7,20.7,N/A,,Overcast,240,2012-10-08 17:54:00
2:15 PM,55.8,27.0,33,30.06,10.0,SSW,16.1,24.2,N/A,,Mostly Cloudy,210,2012-10-08 18:15:00
2:35 PM,53.6,29.1,39,30.05,10.0,SSW,12.7,23.0,N/A,,Overcast,200,2012-10-08 18:35:00
2:54 PM,54.1,29.5,39,30.04,10.0,SSW,17.3,23.0,N/A,,Overcast,210,2012-10-08 18:54:00
3:15 PM,53.2,29.8,41,30.04,10.0,SSW,17.3,23.0,N/A,,Overcast,200,2012-10-08 19:15:00
3:35 PM,53.8,29.5,39,30.04,10.0,SSW,16.1,29.9,N/A,,Overcast,210,2012-10-08 19:35:00
3:54 PM,54.5,29.3,38,30.03,10.0,SSW,17.3,27.6,N/A,,Overcast,210,2012-10-08 19:54:00
4:15 PM,54.9,28.0,36,30.03,10.0,SW,13.8,23.0,N/A,,Mostly Cloudy,220,2012-10-08 20:15:00
4:35 PM,54.5,28.6,37,30.02,10.0,SW,13.8,23.0,N/A,,Mostly Cloudy,220,2012-10-08 20:35:00
4:54 PM,55.2,26.6,33,30.02,10.0,SW,17.3,23.0,N/A,,Mostly Cloudy,220,2012-10-08 20:54:00
5:15 PM,54.1,25.3,33,30.01,10.0,SSW,15.0,21.9,N/A,,Scattered Clouds,200,2012-10-08 21:15:00
5:35 PM,54.5,23.9,31,30.01,10.0,SSW,16.1,23.0,N/A,,Clear,200,2012-10-08 21:35:00
5:54 PM,54.1,23.0,30,30.01,10.0,SSW,12.7,23.0,N/A,,Clear,210,2012-10-08 21:54:00
6:15 PM,53.4,22.6,30,30.01,10.0,SSW,15.0,20.7,N/A,,Clear,200,2012-10-08 22:15:00
6:34 PM,52.3,23.0,32,30.01,10.0,SSW,9.2,16.1,N/A,,Clear,200,2012-10-08 22:34:00
6:55 PM,50.9,23.2,34,30.01,10.0,SSW,4.6,-,N/A,,Clear,200,2012-10-08 22:55:00
7:15 PM,49.6,23.0,35,30.01,10.0,South,5.8,-,N/A,,Clear,170,2012-10-08 23:15:00
7:34 PM,48.4,23.4,37,30.01,10.0,South,3.5,-,N/A,,Clear,170,2012-10-08 23:34:00
7:55 PM,48.2,23.9,39,30.01,10.0,South,5.8,-,N/A,,Clear,170,2012-10-08 23:55:00
8:15 PM,46.2,24.8,43,30.01,10.0,Calm,Calm,-,N/A,,Clear,0,2012-10-09 00:15:00
8:34 PM,45.1,25.7,47,30.01,10.0,SSE,4.6,-,N/A,,Clear,150,2012-10-09 00:34:00
8:55 PM,46.4,26.1,45,30.01,10.0,SSE,4.6,-,N/A,,Clear,160,2012-10-09 00:55:00
9:15 PM,46.4,26.1,45,30.01,10.0,SSE,5.8,-,N/A,,Clear,160,2012-10-09 01:15:00
9:34 PM,47.1,25.3,43,30.01,10.0,South,8.1,-,N/A,,Clear,170,2012-10-09 01:34:00
9:55 PM,47.3,25.2,42,30.01,10.0,South,8.1,-,N/A,,Clear,170,2012-10-09 01:55:00
10:15 PM,47.8,25.0,41,29.99,10.0,South,11.5,20.7,N/A,,Clear,170,2012-10-09 02:15:00
10:34 PM,48.2,24.8,40,29.99,10.0,South,8.1,20.7,N/A,,Clear,170,2012-10-09 02:34:00
10:55 PM,48.2,24.8,40,30.00,10.0,South,9.2,20.7,N/A,,Mostly Cloudy,190,2012-10-09 02:55:00
11:15 PM,48.2,24.8,40,30.00,10.0,South,9.2,20.7,N/A,,Scattered Clouds,180,2012-10-09 03:15:00
11:55 PM,47.3,25.2,42,29.99,10.0,South,10.4,-,N/A,,Clear,170,2012-10-09 03:55:00